User: anonymous   Login
Location: Killarney Provincial Park Observatory
(46.0124°N, 81.4000°W)
Time: 23:59:42
(UTC-04:00)
Language:

Iridium 22 - Orbit

View from above orbital plane
View from above orbital plane
View from above satellite
View from above satellite

Ground track
Ground track

The orbit data is extracted from the following two-line orbital elements,

1 24907U 97043E   16178.16298342  .00000122  00000-0  36503-4 0  9999
2 24907  86.3968  44.9149 0002245  86.0396 274.1056 14.34217483986791
Epoch (UTC): 26 June 2016 03:54:41
Eccentricity: 0.0002245
inclination: 86.3968°
perigee height: 776 km
apogee height: 779 km
right ascension of ascending node: 44.9149°
argument of perigee: 86.0396°
revolutions per day: 14.34217483
mean anomaly at epoch: 274.1056°
orbit number at epoch: 98679

The dashed part of the orbit path shows where the satellite is in the earth's shadow,  

DLR